Flag for U.S.A. Weather past 2 weeks in Osage City, Kansas, U.S.A.

Now
30 °F

Overcast.


Feels Like: 23 °F
Forecast: 24 / 34 °F
Wind: 7 mph from East

Location: Forbes Field

Current Time: Dec 17, 2014 at 2:15:54 PM

Latest Report: Dec 17, 2014 at 1:53 PM


Visibility: 10 mi

Pressure: 30.28 "Hg

Humidity: 69%

Dew point: 21 °F

Location of Osage CityLocation

Historic Weather in Osage City — Graph

°F

Osage City temperature yesterday

Maximum temperature yesterday: 33 °F (at 12:53 PM)
Minimum temperature yesterday: 25 °F (at 7:53 PM)
Average temperature yesterday: 30 °F

Past Weeks' High & Low Weather Summary

 TemperatureHumidityPressure
High61 °F (Dec 14, 1:53 PM)97% (Dec 7, 6:53 AM)30.56 "Hg (Dec 7, 6:53 AM)
Low21 °F (Dec 3, 3:53 AM)27% (Dec 3, 12:53 PM)29.50 "Hg (Dec 15, 5:53 AM)
Average40 °F80%30.20 "Hg
* Reported Dec 2 12:53 PM — Dec 17 12:53 PM, Osage City, Weather by CustomWeather, © 2014

Note: Actual official high and low records may vary slightly from our data, if they occured in-between our weather recording intervals... More about our weather records

Advertising

Osage City weather history for previous 24 hours

 ConditionsComfort  
Time TempWeatherWind HumidityBarometerVisibility
12:53 PM
Dec 17
29 °FOvercast.6 mph69%30.30 "Hg10 mi
11:53 AM27 °FOvercast.3 mph72%30.34 "Hg10 mi
10:53 AM27 °FOvercast.5 mph72%30.37 "Hg10 mi
9:53 AM26 °FOvercast.5 mph71%30.37 "Hg10 mi
8:53 AM25 °FOvercast.No wind75%30.38 "Hg10 mi
7:53 AM25 °FOvercast.5 mph75%30.38 "Hg10 mi
6:53 AM25 °FPassing clouds.5 mph72%30.37 "Hg10 mi
5:53 AM25 °FPassing clouds.7 mph75%30.35 "Hg10 mi
4:53 AM26 °FOvercast.7 mph74%30.37 "Hg10 mi
3:53 AM26 °FOvercast.7 mph77%30.35 "Hg10 mi
2:53 AM27 °FOvercast.7 mph75%30.38 "Hg10 mi
1:53 AM26 °FOvercast.7 mph77%30.38 "Hg10 mi
12:53 AM27 °FOvercast.7 mph75%30.37 "Hg10 mi
11:53 PM
Dec 16
27 °FOvercast.6 mph75%30.39 "Hg10 mi
10:53 PM27 °FOvercast.5 mph75%30.38 "Hg10 mi
9:53 PM27 °FOvercast.5 mph78%30.39 "Hg10 mi
8:53 PM25 °FClear.6 mph78%30.39 "Hg10 mi
7:53 PM25 °FClear.3 mph81%30.37 "Hg10 mi
6:53 PM28 °FClear.6 mph72%30.36 "Hg10 mi
5:53 PM28 °FClear.5 mph72%30.36 "Hg10 mi
4:53 PM31 °FSunny.12 mph67%30.35 "Hg10 mi
3:53 PM33 °FSunny.14 mph63%30.34 "Hg10 mi
2:53 PM32 °FScattered clouds.14 mph64%30.33 "Hg10 mi
Weather by CustomWeather, © 2014

See weather overviewHow to use our weather pages